• In Romania
  • List of Countries
  • For 7 days
  • Water Temperature
  • Satellite Maps
  • Weather Map
  • Weather Widgets
  • user-avatar
    Login

    Hourly Weather Benguela

    Today, 23 June, Friday

    Time Temperature Precipitation Wind Pressure Humidity
    00:00 +24°C° 0 mm 2 mps 760 mmHg 86%
    01:00 +24°C° 0 mm 2 mps 760 mmHg 85%
    02:00 +24°C° 0 mm 2 mps 760 mmHg 80%
    03:00 +24°C° 0 mm 2 mps 760 mmHg 75%
    04:00 +24°C° 0 mm 3 mps 760 mmHg 70%
    05:00 +24°C° 0 mm 2 mps 760 mmHg 60%
    06:00 +24°C° 0 mm 2 mps 760 mmHg 51%
    07:00 +24°C° 0 mm 2 mps 760 mmHg 41%
    08:00 +27°C° 0 mm 2 mps 760 mmHg 34%
    09:00 +31°C° 0 mm 2 mps 760 mmHg 27%
    10:00 +35°C° 0 mm 3 mps 760 mmHg 19%
    11:00 +36°C° 0 mm 3 mps 760 mmHg 20%
    12:00 +37°C° 0 mm 3 mps 759 mmHg 20%
    13:00 +38°C° 0 mm 4 mps 758 mmHg 21%
    14:00 +37°C° 0 mm 4 mps 758 mmHg 26%
    15:00 +36°C° 0 mm 4 mps 758 mmHg 31%
    16:00 +35°C° 0 mm 4 mps 757 mmHg 35%
    17:00 +31°C° 0 mm 3 mps 757 mmHg 47%
    18:00 +29°C° 0 mm 2 mps 758 mmHg 58%
    19:00 +26°C° 0 mm 2 mps 758 mmHg 70%
    20:00 +25°C° 0 mm 2 mps 758 mmHg 71%
    21:00 +25°C° 0 mm 2 mps 759 mmHg 72%
    22:00 +25°C° 0 mm 2 mps 759 mmHg 73%
    23:00 +25°C° 0 mm 2 mps 759 mmHg 71%

    Tomorrow, 24 June, Saturday

    Time Temperature Precipitation Wind Pressure Humidity
    00:00 +25°C° 0 mm 2 mps 759 mmHg 68%
    01:00 +24°C° 0 mm 2 mps 759 mmHg 65%
    02:00 +24°C° 0 mm 2 mps 759 mmHg 63%
    03:00 +24°C° 0 mm 2 mps 758 mmHg 61%
    04:00 +24°C° 0 mm 2 mps 758 mmHg 58%
    05:00 +24°C° 0 mm 2 mps 759 mmHg 53%
    06:00 +25°C° 0 mm 2 mps 759 mmHg 48%
    07:00 +25°C° 0 mm 2 mps 759 mmHg 42%
    08:00 +28°C° 0 mm 2 mps 759 mmHg 35%
    09:00 +31°C° 0 mm 2 mps 760 mmHg 27%
    10:00 +35°C° 0 mm 2 mps 760 mmHg 20%
    11:00 +36°C° 0 mm 3 mps 759 mmHg 20%
    12:00 +37°C° 0 mm 3 mps 758 mmHg 21%
    13:00 +38°C° 0 mm 4 mps 758 mmHg 21%
    14:00 +37°C° 0 mm 4 mps 757 mmHg 24%
    15:00 +37°C° 0 mm 4 mps 757 mmHg 26%
    16:00 +36°C° 0 mm 4 mps 756 mmHg 29%
    17:00 +33°C° 0 mm 3 mps 757 mmHg 37%
    18:00 +30°C° 0 mm 3 mps 757 mmHg 45%
    19:00 +27°C° 0 mm 2 mps 757 mmHg 54%
    20:00 +26°C° 0 mm 2 mps 758 mmHg 56%
    21:00 +26°C° 0 mm 2 mps 758 mmHg 58%
    22:00 +25°C° 0 mm 1 mps 759 mmHg 60%
    23:00 +25°C° 0 mm 1 mps 758 mmHg 60%

    Day after tomorrow, 25 June, Sunday

    Time Temperature Precipitation Wind Pressure Humidity
    00:00 +24°C° 0 mm 2 mps 758 mmHg 61%
    01:00 +24°C° 0 mm 2 mps 758 mmHg 61%
    02:00 +24°C° 0 mm 2 mps 758 mmHg 60%
    03:00 +24°C° 0 mm 2 mps 758 mmHg 60%
    04:00 +24°C° 0 mm 2 mps 757 mmHg 59%
    05:00 +24°C° 0 mm 2 mps 758 mmHg 58%
    06:00 +24°C° 0 mm 1 mps 758 mmHg 57%
    07:00 +24°C° 0 mm 1 mps 758 mmHg 55%
    08:00 +27°C° 0 mm 1 mps 758 mmHg 47%
    09:00 +30°C° 0 mm 1 mps 759 mmHg 38%
    10:00 +33°C° 0 mm 1 mps 759 mmHg 30%
    11:00 +35°C° 0 mm 2 mps 758 mmHg 29%
    12:00 +36°C° 0 mm 3 mps 758 mmHg 28%
    13:00 +37°C° 0 mm 4 mps 757 mmHg 26%
    14:00 +37°C° 0 mm 4 mps 756 mmHg 29%
    15:00 +36°C° 0 mm 4 mps 756 mmHg 31%
    16:00 +35°C° 0 mm 4 mps 756 mmHg 33%
    17:00 +33°C° 0 mm 3 mps 756 mmHg 41%
    18:00 +29°C° 0 mm 3 mps 757 mmHg 50%
    19:00 +27°C° 0 mm 2 mps 757 mmHg 58%
    20:00 +26°C° 0 mm 2 mps 758 mmHg 61%
    21:00 +25°C° 0 mm 2 mps 758 mmHg 64%
    22:00 +25°C° 0 mm 1 mps 758 mmHg 66%
    23:00 +25°C° 0 mm 2 mps 758 mmHg 66%

    26 June, Monday

    Time Temperature Precipitation Wind Pressure Humidity
    00:00 +24°C° 0 mm 2 mps 758 mmHg 65%
    01:00 +24°C° 0 mm 2 mps 758 mmHg 64%
    02:00 +24°C° 0 mm 2 mps 757 mmHg 63%
    03:00 +24°C° 0 mm 2 mps 757 mmHg 61%
    04:00 +24°C° 0 mm 2 mps 757 mmHg 59%
    05:00 +24°C° 0 mm 2 mps 757 mmHg 57%
    06:00 +25°C° 0 mm 2 mps 758 mmHg 55%
    07:00 +25°C° 0 mm 1 mps 758 mmHg 53%
    08:00 +28°C° 0 mm 1 mps 758 mmHg 44%
    09:00 +31°C° 0 mm 1 mps 758 mmHg 34%
    10:00 +35°C° 0 mm 2 mps 759 mmHg 25%
    11:00 +36°C° 0 mm 2 mps 758 mmHg 24%
    12:00 +37°C° 0 mm 3 mps 757 mmHg 23%
    13:00 +40°C° 0 mm 4 mps 757 mmHg 22%
    14:00 +38°C° 0 mm 4 mps 756 mmHg 24%
    15:00 +37°C° 0 mm 4 mps 756 mmHg 26%
    16:00 +36°C° 0 mm 4 mps 756 mmHg 29%
    17:00 +34°C° 0 mm 4 mps 756 mmHg 36%
    18:00 +30°C° 0 mm 3 mps 757 mmHg 43%
    19:00 +28°C° 0 mm 3 mps 758 mmHg 49%
    20:00 +27°C° 0 mm 2 mps 758 mmHg 51%
    21:00 +27°C° 0 mm 2 mps 759 mmHg 52%
    22:00 +26°C° 0 mm 2 mps 759 mmHg 53%
    23:00 +26°C° 0 mm 2 mps 759 mmHg 53%

    27 June, Tuesday

    Time Temperature Precipitation Wind Pressure Humidity
    00:00 +25°C° 0 mm 2 mps 759 mmHg 53%
    01:00 +25°C° 0 mm 2 mps 759 mmHg 53%
    02:00 +25°C° 0 mm 2 mps 759 mmHg 51%
    03:00 +25°C° 0 mm 3 mps 758 mmHg 49%
    04:00 +25°C° 0 mm 3 mps 758 mmHg 47%
    05:00 +26°C° 0 mm 3 mps 759 mmHg 45%
    06:00 +26°C° 0 mm 3 mps 759 mmHg 44%
    07:00 +26°C° 0 mm 2 mps 759 mmHg 42%
    08:00 +29°C° 0 mm 2 mps 760 mmHg 36%
    09:00 +32°C° 0 mm 2 mps 760 mmHg 29%
    10:00 +36°C° 0 mm 2 mps 760 mmHg 23%
    11:00 +37°C° 0 mm 3 mps 759 mmHg 22%
    12:00 +38°C° 0 mm 3 mps 759 mmHg 22%
    13:00 +40°C° 0 mm 4 mps 758 mmHg 21%
    14:00 +38°C° 0 mm 4 mps 758 mmHg 22%
    15:00 +37°C° 0 mm 4 mps 757 mmHg 24%
    16:00 +37°C° 0 mm 4 mps 757 mmHg 26%
    17:00 +34°C° 0 mm 4 mps 758 mmHg 31%
    18:00 +31°C° 0 mm 3 mps 758 mmHg 37%
    19:00 +28°C° 0 mm 3 mps 759 mmHg 43%
    20:00 +28°C° 0 mm 2 mps 759 mmHg 43%
    21:00 +28°C° 0 mm 2 mps 759 mmHg 42%
    22:00 +27°C° 0 mm 2 mps 760 mmHg 42%
    23:00 +27°C° 0 mm 2 mps 759 mmHg 41%

    28 June, Wednesday

    Time Temperature Precipitation Wind Pressure Humidity
    00:00 +27°C° 0 mm 2 mps 759 mmHg 41%
    01:00 +27°C° 0 mm 1 mps 759 mmHg 41%
    02:00 +26°C° 0 mm 2 mps 759 mmHg 39%
    03:00 +26°C° 0 mm 2 mps 759 mmHg 38%
    04:00 +26°C° 0 mm 2 mps 759 mmHg 36%
    05:00 +26°C° 0 mm 2 mps 759 mmHg 35%
    06:00 +26°C° 0 mm 2 mps 759 mmHg 35%
    07:00 +26°C° 0 mm 2 mps 760 mmHg 34%
    08:00 +29°C° 0 mm 2 mps 760 mmHg 29%
    09:00 +32°C° 0 mm 2 mps 760 mmHg 25%
    10:00 +36°C° 0 mm 2 mps 760 mmHg 20%
    11:00 +37°C° 0 mm 3 mps 759 mmHg 20%
    12:00 +38°C° 0 mm 3 mps 759 mmHg 20%
    13:00 +38°C° 0 mm 4 mps 758 mmHg 21%
    14:00 +38°C° 0 mm 4 mps 758 mmHg 23%
    15:00 +37°C° 0 mm 5 mps 757 mmHg 25%
    16:00 +36°C° 0 mm 5 mps 757 mmHg 28%
    17:00 +34°C° 0 mm 4 mps 757 mmHg 34%
    18:00 +30°C° 0 mm 4 mps 758 mmHg 41%
    19:00 +28°C° 0 mm 4 mps 758 mmHg 48%
    20:00 +28°C° 0 mm 3 mps 759 mmHg 49%
    21:00 +27°C° 0 mm 3 mps 759 mmHg 51%
    22:00 +27°C° 0 mm 3 mps 759 mmHg 52%
    23:00 +26°C° 0 mm 3 mps 759 mmHg 52%
    Show more